,,Stat5,,Stat1,,Stat2,,Stat3,,Stat4,,Wind1,,Wind1,
time,status,PA1M_AVG,status,PR1M_SUM,status,RH1M_AVG,status,SR1M_AVG,status,TA1M_AVG,status,W1dAve1m,status,W1sAve1m,
2001-05-10, 00:00:00,VALID,918.846,VALID,0,VALID,98.9639,VALID,-0.101885,VALID,20.0516,VALID,219,VALID,0,
2001-05-10, 00:01:00,VALID,918.846,VALID,0,VALID,98.9766,VALID,-0.0849042,VALID,20.0417,VALID,213,VALID,0,
2001-05-10, 00:02:00,VALID,918.847,VALID,0,VALID,98.9715,VALID,-0.0849042,VALID,20.0384,VALID,219,VALID,0,
2001-05-10, 00:03:00,VALID,918.832,VALID,0,VALID,98.983,VALID,-0.0849042,VALID,20.032,VALID,220,VALID,0,
2001-05-10, 00:04:00,VALID,918.819,VALID,0,VALID,98.997,VALID,-0.0679233,VALID,20.0322,VALID,229,VALID,0,
2001-05-10, 00:05:00,VALID,918.825,VALID,0,VALID,99.0173,VALID,-0.101885,VALID,20.0417,VALID,228,VALID,0,
2001-05-10, 00:06:00,VALID,918.813,VALID,0,VALID,99.0059,VALID,-0.0849042,VALID,20.0382,VALID,233,VALID,0,
2001-05-10, 00:07:00,VALID,918.774,VALID,0,VALID,99.0224,VALID,-0.0679233,VALID,20.0489,VALID,239,VALID,0,
2001-05-10, 00:08:00,VALID,918.757,VALID,0,VALID,99.0224,VALID,-0.101885,VALID,20.0417,VALID,240,VALID,0,
2001-05-10, 00:09:00,VALID,918.729,VALID,0,VALID,99.0262,VALID,-0.0339617,VALID,20.0506,VALID,228,VALID,0,
2001-05-10, 00:10:00,VALID,918.695,VALID,0,VALID,99.0173,VALID,0.0339617,VALID,20.0471,VALID,233,VALID,0,
2001-05-10, 00:11:00,VALID,918.671,VALID,0,VALID,99.0084,VALID,0,VALID,20.0469,VALID,227,VALID,0,
2001-05-10, 00:12:00,VALID,918.649,VALID,0,VALID,99.0059,VALID,0,VALID,20.0401,VALID,233,VALID,0,
2001-05-10, 00:13:00,VALID,918.629,VALID,0,VALID,99.0237,VALID,0,VALID,20.0469,VALID,219,VALID,0,
2001-05-10, 00:14:00,VALID,918.633,VALID,0,VALID,98.9957,VALID,0,VALID,20.0436,VALID,214,VALID,0,
2001-05-10, 00:15:00,VALID,918.649,VALID,0,VALID,98.9792,VALID,0.0169808,VALID,20.0344,VALID,219,VALID,0,
2001-05-10, 00:16:00,VALID,918.653,VALID,0,VALID,98.9194,VALID,0.0169808,VALID,19.9954,VALID,226,VALID,0,
2001-05-10, 00:17:00,VALID,918.656,VALID,0,VALID,98.9067,VALID,0.0169808,VALID,19.9922,VALID,231,VALID,0,
2001-05-10, 00:18:00,VALID,918.667,VALID,0,VALID,98.9092,VALID,0,VALID,20.0083,VALID,223,VALID,0,
2001-05-10, 00:19:00,VALID,918.676,VALID,0,VALID,98.8965,VALID,0,VALID,20.031,VALID,224,VALID,0,
2001-05-10, 00:20:00,VALID,918.688,VALID,0,VALID,98.9232,VALID,0.0169808,VALID,20.0565,VALID,232,VALID,0,
2001-05-10, 00:21:00,VALID,918.689,VALID,0,VALID,98.9003,VALID,0,VALID,20.1053,VALID,194,VALID,0,
2001-05-10, 00:22:00,VALID,918.675,VALID,0,VALID,98.8596,VALID,0.0339617,VALID,20.1276,VALID,222,VALID,0,
2001-05-10, 00:23:00,VALID,918.674,VALID,0,VALID,98.796,VALID,0,VALID,20.14,VALID,224,VALID,0,
2001-05-10, 00:24:00,VALID,918.678,VALID,0,VALID,98.7681,VALID,0.0169808,VALID,20.1766,VALID,221,VALID,0,
2001-05-10, 00:25:00,VALID,918.678,VALID,0,VALID,98.707,VALID,0,VALID,20.2089,VALID,211,VALID,0,
2001-05-10, 00:26:00,VALID,918.676,VALID,0,VALID,98.6269,VALID,0,VALID,20.2089,VALID,196,VALID,0,
2001-05-10, 00:27:00,VALID,918.673,VALID,0,VALID,98.5888,VALID,0,VALID,20.2124,VALID,211,VALID,0,
2001-05-10, 00:28:00,VALID,918.668,VALID,0,VALID,98.529,VALID,-0.0339617,VALID,20.2049,VALID,211,VALID,0,
2001-05-10, 00:29:00,VALID,918.657,VALID,0,VALID,98.4909,VALID,0,VALID,20.2124,VALID,220,VALID,0,
2001-05-10, 00:30:00,VALID,918.635,VALID,0,VALID,98.4476,VALID,0,VALID,20.1987,VALID,215,VALID,0,
2001-05-10, 00:31:00,VALID,918.604,VALID,0,VALID,98.4222,VALID,0,VALID,20.1892,VALID,230,VALID,0,
2001-05-10, 00:32:00,VALID,918.595,VALID,0,VALID,98.4044,VALID,0,VALID,20.1731,VALID,213,VALID,0,
2001-05-10, 00:33:00,VALID,918.574,VALID,0,VALID,98.3879,VALID,-0.0169808,VALID,20.1569,VALID,215,VALID,0,
2001-05-10, 00:34:00,VALID,918.578,VALID,0,VALID,98.4095,VALID,0.0169808,VALID,20.1512,VALID,213,VALID,0,
2001-05-10, 00:35:00,VALID,918.587,VALID,0,VALID,98.412,VALID,0,VALID,20.1149,VALID,211,VALID,0,
2001-05-10, 00:36:00,VALID,918.579,VALID,0,VALID,98.4286,VALID,0,VALID,20.1217,VALID,219,VALID,0,
2001-05-10, 00:37:00,VALID,918.57,VALID,0,VALID,98.4692,VALID,0,VALID,20.1122,VALID,213,VALID,0,
2001-05-10, 00:38:00,VALID,918.563,VALID,0,VALID,98.4502,VALID,0,VALID,20.1018,VALID,215,VALID,0,
2001-05-10, 00:39:00,VALID,918.557,VALID,0,VALID,98.454,VALID,-0.0169808,VALID,20.0729,VALID,216,VALID,0,
2001-05-10, 00:40:00,VALID,918.542,VALID,0,VALID,98.4705,VALID,0,VALID,20.0498,VALID,219,VALID,0,
2001-05-10, 00:41:00,VALID,918.506,VALID,0,VALID,98.4845,VALID,0.0169808,VALID,20.0377,VALID,210,VALID,0,
2001-05-10, 00:42:00,VALID,918.491,VALID,0,VALID,98.5303,VALID,0.0169808,VALID,20.0145,VALID,191,VALID,0,
2001-05-10, 00:43:00,VALID,918.484,VALID,0,VALID,98.5773,VALID,0.0169808,VALID,19.9957,VALID,210,VALID,0,
2001-05-10, 00:44:00,VALID,918.465,VALID,0,VALID,98.5926,VALID,-0.0169808,VALID,19.9827,VALID,207,VALID,0,
2001-05-10, 00:45:00,VALID,918.455,VALID,0,VALID,98.6371,VALID,0,VALID,19.9726,VALID,203,VALID,0,
2001-05-10, 00:46:00,VALID,918.464,VALID,0,VALID,98.6651,VALID,0,VALID,19.9696,VALID,213,VALID,0,
2001-05-10, 00:47:00,VALID,918.453,VALID,0,VALID,98.7159,VALID,0.0169808,VALID,19.9795,VALID,219,VALID,0,
2001-05-10, 00:48:00,VALID,918.446,VALID,0,VALID,98.7287,VALID,0,VALID,19.9763,VALID,220,VALID,0,
2001-05-10, 00:49:00,VALID,918.427,VALID,0,VALID,98.7681,VALID,0,VALID,19.9666,VALID,219,VALID,0,
2001-05-10, 00:50:00,VALID,918.413,VALID,0,VALID,98.7782,VALID,0,VALID,19.9765,VALID,225,VALID,0,
2001-05-10, 00:51:00,VALID,918.403,VALID,0,VALID,98.7897,VALID,0,VALID,19.9736,VALID,223,VALID,0,
2001-05-10, 00:52:00,VALID,918.377,VALID,0,VALID,98.7948,VALID,0,VALID,19.9696,VALID,218,VALID,0,
2001-05-10, 00:53:00,VALID,918.359,VALID,0,VALID,98.777,VALID,0.0169808,VALID,19.9634,VALID,226,VALID,0,
2001-05-10, 00:54:00,VALID,918.347,VALID,0,VALID,98.7452,VALID,-0.0169808,VALID,19.944,VALID,229,VALID,0,
2001-05-10, 00:55:00,VALID,918.349,VALID,0,VALID,98.7159,VALID,0,VALID,19.9504,VALID,221,VALID,0,
2001-05-10, 00:56:00,VALID,918.349,VALID,0,VALID,98.6651,VALID,0,VALID,19.9373,VALID,209,VALID,0,
2001-05-10, 00:57:00,VALID,918.342,VALID,0,VALID,98.6206,VALID,0,VALID,19.9373,VALID,207,VALID,0,
2001-05-10, 00:58:00,VALID,918.354,VALID,0,VALID,98.571,VALID,0,VALID,19.9343,VALID,198,VALID,0,
2001-05-10, 00:59:00,VALID,918.353,VALID,0,VALID,98.5328,VALID,0.0169808,VALID,19.9375,VALID,204,VALID,0,
2001-05-10, 01:00:00,VALID,918.352,VALID,0,VALID,98.4667,VALID,0,VALID,19.9249,VALID,226,VALID,0,
2001-05-10, 01:01:00,VALID,918.338,VALID,0,VALID,98.3751,VALID,-0.0169808,VALID,19.9122,VALID,223,VALID,0,
2001-05-10, 01:02:00,VALID,918.327,VALID,0,VALID,98.2721,VALID,-0.0169808,VALID,19.8988,VALID,215,VALID,0,
2001-05-10, 01:03:00,VALID,918.312,VALID,0,VALID,98.1285,VALID,-0.0169808,VALID,19.8826,VALID,226,VALID,0,
2001-05-10, 01:04:00,VALID,918.294,VALID,0,VALID,97.9797,VALID,-0.0169808,VALID,19.8732,VALID,233,VALID,0,
2001-05-10, 01:05:00,VALID,918.287,VALID,0,VALID,97.8462,VALID,-0.0509425,VALID,19.8667,VALID,226,VALID,0,
2001-05-10, 01:06:00,VALID,918.269,VALID,0,VALID,97.7673,VALID,0,VALID,19.8896,VALID,233,VALID,0,
2001-05-10, 01:07:00,VALID,918.266,VALID,0,VALID,97.7241,VALID,0,VALID,19.9089,VALID,231,VALID,0,
2001-05-10, 01:08:00,VALID,918.26,VALID,0,VALID,97.705,VALID,-0.0169808,VALID,19.9251,VALID,235,VALID,0,
2001-05-10, 01:09:00,VALID,918.275,VALID,0,VALID,97.7381,VALID,-0.0169808,VALID,19.948,VALID,246,VALID,0,
2001-05-10, 01:10:00,VALID,918.282,VALID,0,VALID,97.8233,VALID,0,VALID,19.9311,VALID,231,VALID,0,
2001-05-10, 01:11:00,VALID,918.287,VALID,0,VALID,97.9021,VALID,0,VALID,19.9216,VALID,235,VALID,0,
2001-05-10, 01:12:00,VALID,918.287,VALID,0,VALID,97.9975,VALID,0,VALID,19.9052,VALID,231,VALID,0,
2001-05-10, 01:13:00,VALID,918.282,VALID,0,VALID,98.0839,VALID,0,VALID,19.8861,VALID,231,VALID,0,
2001-05-10, 01:14:00,VALID,918.274,VALID,0,VALID,98.1539,VALID,0.0169808,VALID,19.8635,VALID,224,VALID,0,
2001-05-10, 01:15:00,VALID,918.269,VALID,0,VALID,98.1908,VALID,0,VALID,19.8538,VALID,226,VALID,0,
2001-05-10, 01:16:00,VALID,918.251,VALID,0,VALID,98.2073,VALID,0,VALID,19.8347,VALID,218,VALID,0,
2001-05-10, 01:17:00,VALID,918.215,VALID,0,VALID,98.2454,VALID,0,VALID,19.8182,VALID,225,VALID,0,
2001-05-10, 01:18:00,VALID,918.215,VALID,0,VALID,98.2505,VALID,0,VALID,19.8053,VALID,237,VALID,0,
2001-05-10, 01:19:00,VALID,918.203,VALID,0,VALID,98.2429,VALID,-0.0169808,VALID,19.7827,VALID,238,VALID,0,
2001-05-10, 01:20:00,VALID,918.177,VALID,0,VALID,98.2238,VALID,0,VALID,19.7892,VALID,217,VALID,0,
2001-05-10, 01:21:00,VALID,918.14,VALID,0,VALID,98.1399,VALID,-0.0169808,VALID,19.7636,VALID,225,VALID,0,
2001-05-10, 01:22:00,VALID,918.102,VALID,0,VALID,98.1106,VALID,0,VALID,19.7638,VALID,227,VALID,0,
2001-05-10, 01:23:00,VALID,918.061,VALID,0,VALID,98.0839,VALID,0,VALID,19.7571,VALID,218,VALID,0,
2001-05-10, 01:24:00,VALID,918.036,VALID,0,VALID,98.0738,VALID,-0.0169808,VALID,19.7668,VALID,233,VALID,0,
2001-05-10, 01:25:00,VALID,918.022,VALID,0,VALID,98.0852,VALID,0.0169808,VALID,19.7502,VALID,226,VALID,0,
2001-05-10, 01:26:00,VALID,917.998,VALID,0,VALID,98.0725,VALID,-0.0339617,VALID,19.7504,VALID,219,VALID,0,
2001-05-10, 01:27:00,VALID,917.983,VALID,0,VALID,98.0165,VALID,0.0169808,VALID,19.7248,VALID,213,VALID,0,
2001-05-10, 01:28:00,VALID,917.984,VALID,0,VALID,98.0038,VALID,0,VALID,19.7084,VALID,207,VALID,0,
2001-05-10, 01:29:00,VALID,917.987,VALID,0,VALID,97.9886,VALID,0.0169808,VALID,19.699,VALID,211,VALID,0,
2001-05-10, 01:30:00,VALID,917.988,VALID,0,VALID,97.9898,VALID,-0.0169808,VALID,19.6863,VALID,215,VALID,0,
2001-05-10, 01:31:00,VALID,917.985,VALID,0,VALID,97.9644,VALID,0,VALID,19.6823,VALID,227,VALID,0,
2001-05-10, 01:32:00,VALID,917.947,VALID,0,VALID,97.9059,VALID,0,VALID,19.696,VALID,225,VALID,0,
2001-05-10, 01:33:00,VALID,917.919,VALID,0,VALID,97.8245,VALID,0,VALID,19.692,VALID,229,VALID,0,
2001-05-10, 01:34:00,VALID,917.905,VALID,0,VALID,97.7584,VALID,0,VALID,19.6953,VALID,235,VALID,0,
2001-05-10, 01:35:00,VALID,917.894,VALID,0,VALID,97.677,VALID,0,VALID,19.7149,VALID,228,VALID,0,
2001-05-10, 01:36:00,VALID,917.868,VALID,0,VALID,97.5817,VALID,0,VALID,19.7151,VALID,236,VALID,0,
2001-05-10, 01:37:00,VALID,917.85,VALID,0,VALID,97.5677,VALID,0,VALID,19.7146,VALID,228,VALID,0,
2001-05-10, 01:38:00,VALID,917.842,VALID,0,VALID,97.5626,VALID,0,VALID,19.7216,VALID,228,VALID,0,
2001-05-10, 01:39:00,VALID,917.84,VALID,0,VALID,97.5639,VALID,-0.0679233,VALID,19.703,VALID,242,VALID,0,
2001-05-10, 01:40:00,VALID,917.827,VALID,0,VALID,97.6821,VALID,-0.101885,VALID,19.7039,VALID,236,VALID,0,
2001-05-10, 01:41:00,VALID,917.817,VALID,0,VALID,97.658,VALID,-0.101885,VALID,19.6972,VALID,238,VALID,0,
2001-05-10, 01:42:00,VALID,917.812,VALID,0,VALID,97.6974,VALID,-0.101885,VALID,19.6943,VALID,238,VALID,0,
2001-05-10, 01:43:00,VALID,917.787,VALID,0,VALID,97.6122,VALID,-0.0849042,VALID,19.6843,VALID,244,VALID,0,
2001-05-10, 01:44:00,VALID,917.777,VALID,0,VALID,97.6046,VALID,-0.0679233,VALID,19.6843,VALID,230,VALID,0,
2001-05-10, 01:45:00,VALID,917.772,VALID,0,VALID,97.5486,VALID,-0.0849042,VALID,19.6811,VALID,223,VALID,0,
2001-05-10, 01:46:00,VALID,917.756,VALID,0,VALID,97.4011,VALID,-0.118866,VALID,19.6647,VALID,232,VALID,0,
2001-05-10, 01:47:00,VALID,917.748,VALID,0,VALID,97.2358,VALID,-0.101885,VALID,19.6488,VALID,220,VALID,0,
2001-05-10, 01:48:00,VALID,917.717,VALID,0,VALID,97.1366,VALID,-0.0849042,VALID,19.6485,VALID,223,VALID,0,
2001-05-10, 01:49:00,VALID,917.685,VALID,0,VALID,96.9878,VALID,-0.101885,VALID,19.6488,VALID,229,VALID,0,
2001-05-10, 01:50:00,VALID,917.654,VALID,0,VALID,96.6598,VALID,-0.101885,VALID,19.6361,VALID,224,VALID,0,
2001-05-10, 01:51:00,VALID,917.624,VALID,0,VALID,96.3151,VALID,-0.101885,VALID,19.6299,VALID,224,VALID,0,
2001-05-10, 01:52:00,VALID,917.603,VALID,0,VALID,95.9744,VALID,-0.0849042,VALID,19.6289,VALID,222,VALID,0,
2001-05-10, 01:53:00,VALID,917.588,VALID,0,VALID,95.7111,VALID,0,VALID,19.6503,VALID,211,VALID,0,
2001-05-10, 01:54:00,VALID,917.594,VALID,0,VALID,95.5433,VALID,0,VALID,19.6597,VALID,196,VALID,0,
2001-05-10, 01:55:00,VALID,917.59,VALID,0,VALID,95.467,VALID,0.0169808,VALID,19.6793,VALID,193,VALID,0,
2001-05-10, 01:56:00,VALID,917.587,VALID,0,VALID,95.2877,VALID,0,VALID,19.6858,VALID,179,VALID,0,
2001-05-10, 01:57:00,VALID,917.574,VALID,0,VALID,95.1872,VALID,0,VALID,19.6664,VALID,190,VALID,0,
2001-05-10, 01:58:00,VALID,917.57,VALID,0,VALID,95.1605,VALID,0.0169808,VALID,19.6697,VALID,178,VALID,0,
2001-05-10, 01:59:00,VALID,917.575,VALID,0,VALID,95.205,VALID,0,VALID,19.6634,VALID,216,VALID,0,
2001-05-10, 02:00:00,VALID,917.56,VALID,0,VALID,95.2762,VALID,0.0509425,VALID,19.6468,VALID,179,VALID,0,
2001-05-10, 02:01:00,VALID,917.563,VALID,0,VALID,95.2724,VALID,0.0169808,VALID,19.6403,VALID,167,VALID,0,
2001-05-10, 02:02:00,VALID,917.555,VALID,0,VALID,95.3029,VALID,0.0169808,VALID,19.6473,VALID,175,VALID,0,
2001-05-10, 02:03:00,VALID,917.554,VALID,0,VALID,95.3665,VALID,0.0169808,VALID,19.6287,VALID,179,VALID,0,
2001-05-10, 02:04:00,VALID,917.546,VALID,0,VALID,95.5382,VALID,0,VALID,19.6118,VALID,177,VALID,0,
2001-05-10, 02:05:00,VALID,917.54,VALID,0,VALID,95.659,VALID,0.0169808,VALID,19.5862,VALID,184,VALID,0,
2001-05-10, 02:06:00,VALID,917.507,VALID,0,VALID,95.7429,VALID,0,VALID,19.5832,VALID,146,VALID,0,
2001-05-10, 02:07:00,VALID,917.488,VALID,0,VALID,95.8536,VALID,0,VALID,19.5633,VALID,196,VALID,0,
2001-05-10, 02:08:00,VALID,917.459,VALID,0,VALID,95.9667,VALID,0.0169808,VALID,19.5472,VALID,220,VALID,0,
2001-05-10, 02:09:00,VALID,917.453,VALID,0,VALID,96.0723,VALID,0,VALID,19.5442,VALID,235,VALID,0,
2001-05-10, 02:10:00,VALID,917.433,VALID,0,VALID,96.1269,VALID,-0.0169808,VALID,19.5414,VALID,222,VALID,0,
2001-05-10, 02:11:00,VALID,917.439,VALID,0,VALID,96.1829,VALID,0,VALID,19.541,VALID,213,VALID,0,
2001-05-10, 02:12:00,VALID,917.436,VALID,0,VALID,96.3762,VALID,-0.0339617,VALID,19.5226,VALID,216,VALID,0,
2001-05-10, 02:13:00,VALID,917.438,VALID,0,VALID,96.6725,VALID,0,VALID,19.5151,VALID,197,VALID,0,
2001-05-10, 02:14:00,VALID,917.44,VALID,0,VALID,96.8861,VALID,-0.0169808,VALID,19.4763,VALID,200,VALID,0,
2001-05-10, 02:15:00,VALID,917.446,VALID,0,VALID,96.9993,VALID,-0.0169808,VALID,19.4378,VALID,193,VALID,0,
2001-05-10, 02:16:00,VALID,917.439,VALID,0,VALID,97.1748,VALID,0,VALID,19.4254,VALID,183,VALID,0,
2001-05-10, 02:17:00,VALID,917.457,VALID,0,VALID,97.3134,VALID,-0.0509425,VALID,19.3963,VALID,177,VALID,0,
2001-05-10, 02:18:00,VALID,917.455,VALID,0,VALID,97.3426,VALID,0,VALID,19.377,VALID,196,VALID,0,
2001-05-10, 02:19:00,VALID,917.449,VALID,0,VALID,97.4189,VALID,-0.0509425,VALID,19.3576,VALID,212,VALID,0,
2001-05-10, 02:20:00,VALID,917.444,VALID,0,VALID,97.4888,VALID,-0.0169808,VALID,19.3479,VALID,213,VALID,0,
2001-05-10, 02:21:00,VALID,917.433,VALID,0,VALID,97.4672,VALID,-0.0849042,VALID,19.3317,VALID,215,VALID,0,
2001-05-10, 02:22:00,VALID,917.42,VALID,0,VALID,97.4596,VALID,-0.0509425,VALID,19.3188,VALID,208,VALID,0,
2001-05-10, 02:23:00,VALID,917.409,VALID,0,VALID,97.4545,VALID,-0.0679233,VALID,19.3287,VALID,178,VALID,0,
2001-05-10, 02:24:00,VALID,917.401,VALID,0,VALID,97.3375,VALID,0.0169808,VALID,19.2982,VALID,192,VALID,0,
2001-05-10, 02:25:00,VALID,917.39,VALID,0,VALID,97.3464,VALID,0.0509425,VALID,19.2855,VALID,197,VALID,0,
2001-05-10, 02:26:00,VALID,917.365,VALID,0,VALID,97.4316,VALID,0.0509425,VALID,19.2915,VALID,200,VALID,0,
2001-05-10, 02:27:00,VALID,917.334,VALID,0,VALID,97.4049,VALID,0.0339617,VALID,19.2918,VALID,208,VALID,0,
2001-05-10, 02:28:00,VALID,917.3,VALID,0,VALID,97.4545,VALID,0.0339617,VALID,19.2784,VALID,225,VALID,0,
2001-05-10, 02:29:00,VALID,917.283,VALID,0,VALID,97.5689,VALID,0.0509425,VALID,19.292,VALID,228,VALID,0,
2001-05-10, 02:30:00,VALID,917.251,VALID,0,VALID,97.5995,VALID,0.0339617,VALID,19.2853,VALID,226,VALID,0,
2001-05-10, 02:31:00,VALID,917.239,VALID,0,VALID,97.5791,VALID,0.0509425,VALID,19.2791,VALID,204,VALID,0,
2001-05-10, 02:32:00,VALID,917.255,VALID,0,VALID,97.555,VALID,0.0849042,VALID,19.2622,VALID,167,VALID,0,
2001-05-10, 02:33:00,VALID,917.244,VALID,0,VALID,97.438,VALID,0.0679233,VALID,19.25,VALID,153,VALID,0,
2001-05-10, 02:34:00,VALID,917.231,VALID,0,VALID,97.3451,VALID,0.0509425,VALID,19.2272,VALID,152,VALID,0,
2001-05-10, 02:35:00,VALID,917.226,VALID,0,VALID,97.3095,VALID,0.0509425,VALID,19.2011,VALID,158,VALID,0,
2001-05-10, 02:36:00,VALID,917.213,VALID,0,VALID,97.2587,VALID,0.0679233,VALID,19.1976,VALID,158,VALID,0,
2001-05-10, 02:37:00,VALID,917.205,VALID,0,VALID,97.2854,VALID,0.0679233,VALID,19.1817,VALID,162,VALID,0,
2001-05-10, 02:38:00,VALID,917.201,VALID,0,VALID,97.2015,VALID,0.101885,VALID,19.1949,VALID,145,VALID,0,
2001-05-10, 02:39:00,VALID,917.193,VALID,0,VALID,97.0234,VALID,0.0169808,VALID,19.1926,VALID,163,VALID,0,
2001-05-10, 02:40:00,VALID,917.188,VALID,0,VALID,96.9802,VALID,-0.0509425,VALID,19.1737,VALID,178,VALID,0,
2001-05-10, 02:41:00,VALID,917.176,VALID,0,VALID,97.0425,VALID,-0.0509425,VALID,19.1836,VALID,186,VALID,0,
2001-05-10, 02:42:00,VALID,917.148,VALID,0,VALID,96.9217,VALID,-0.0509425,VALID,19.1804,VALID,199,VALID,0,
2001-05-10, 02:43:00,VALID,917.126,VALID,0,VALID,97.1061,VALID,-0.0339617,VALID,19.1802,VALID,216,VALID,0,
2001-05-10, 02:44:00,VALID,917.11,VALID,0,VALID,97.3134,VALID,-0.0679233,VALID,19.1963,VALID,217,VALID,0,
2001-05-10, 02:45:00,VALID,917.096,VALID,0,VALID,97.4837,VALID,-0.0679233,VALID,19.2092,VALID,210,VALID,0,
2001-05-10, 02:46:00,VALID,917.102,VALID,0,VALID,97.5956,VALID,-0.0339617,VALID,19.2028,VALID,209,VALID,0,
2001-05-10, 02:47:00,VALID,917.101,VALID,0,VALID,97.6541,VALID,-0.0679233,VALID,19.1864,VALID,202,VALID,0,
2001-05-10, 02:48:00,VALID,917.096,VALID,0,VALID,97.7088,VALID,0,VALID,19.1772,VALID,205,VALID,0,
2001-05-10, 02:49:00,VALID,917.126,VALID,0,VALID,97.7762,VALID,-0.0509425,VALID,19.1705,VALID,187,VALID,0,
2001-05-10, 02:50:00,VALID,917.127,VALID,0,VALID,97.7851,VALID,-0.0339617,VALID,19.1509,VALID,184,VALID,0,
2001-05-10, 02:51:00,VALID,917.115,VALID,0,VALID,97.7521,VALID,-0.0169808,VALID,19.1414,VALID,177,VALID,0,
2001-05-10, 02:52:00,VALID,917.117,VALID,0,VALID,97.6694,VALID,-0.0509425,VALID,19.1317,VALID,158,VALID,0,
2001-05-10, 02:53:00,VALID,917.119,VALID,0,VALID,97.4113,VALID,-0.0339617,VALID,19.0964,VALID,149,VALID,0,
2001-05-10, 02:54:00,VALID,917.109,VALID,0,VALID,97.3019,VALID,-0.0339617,VALID,19.054,VALID,144,VALID,0,
2001-05-10, 02:55:00,VALID,917.114,VALID,0,VALID,97.3286,VALID,-0.0679233,VALID,19.048,VALID,147,VALID,0,
2001-05-10, 02:56:00,VALID,917.11,VALID,0,VALID,97.3426,VALID,-0.0339617,VALID,19.0376,VALID,150,VALID,0,
2001-05-10, 02:57:00,VALID,917.11,VALID,0,VALID,97.3744,VALID,-0.0169808,VALID,19.041,VALID,168,VALID,0,
2001-05-10, 02:58:00,VALID,917.075,VALID,0,VALID,97.5715,VALID,-0.0339617,VALID,19.0537,VALID,183,VALID,0,
2001-05-10, 02:59:00,VALID,917.042,VALID,0,VALID,97.602,VALID,-0.0339617,VALID,19.093,VALID,184,VALID,0,
2001-05-10, 03:00:00,VALID,917.022,VALID,0,VALID,97.4748,VALID,0,VALID,19.1153,VALID,183,VALID,0,
2001-05-10, 03:01:00,VALID,917.016,VALID,0,VALID,97.3617,VALID,-0.0509425,VALID,19.1349,VALID,181,VALID,0,
2001-05-10, 03:02:00,VALID,917.023,VALID,0,VALID,97.2663,VALID,0,VALID,19.1412,VALID,179,VALID,0,
2001-05-10, 03:03:00,VALID,917.016,VALID,0,VALID,97.0794,VALID,-0.0169808,VALID,19.1511,VALID,167,VALID,0,
2001-05-10, 03:04:00,VALID,917.021,VALID,0,VALID,96.8441,VALID,0,VALID,19.1282,VALID,167,VALID,0,
2001-05-10, 03:05:00,VALID,917.021,VALID,0,VALID,96.9598,VALID,-0.0169808,VALID,19.1285,VALID,187,VALID,0,
2001-05-10, 03:06:00,VALID,917.023,VALID,0,VALID,96.9319,VALID,-0.0169808,VALID,19.1481,VALID,199,VALID,0,
2001-05-10, 03:07:00,VALID,917.019,VALID,0,VALID,96.7831,VALID,0,VALID,19.1742,VALID,200,VALID,0,
2001-05-10, 03:08:00,VALID,917.011,VALID,0,VALID,96.6826,VALID,-0.0169808,VALID,19.1737,VALID,192,VALID,0,
2001-05-10, 03:09:00,VALID,917.01,VALID,0,VALID,96.6038,VALID,-0.0509425,VALID,19.1834,VALID,187,VALID,0,
2001-05-10, 03:10:00,VALID,917.011,VALID,0,VALID,96.5567,VALID,-0.0169808,VALID,19.1869,VALID,225,VALID,0,
2001-05-10, 03:11:00,VALID,917,VALID,0,VALID,96.558,VALID,-0.0169808,VALID,19.1732,VALID,215,VALID,0,
2001-05-10, 03:12:00,VALID,917,VALID,0,VALID,96.572,VALID,-0.0339617,VALID,19.1705,VALID,216,VALID,0,
2001-05-10, 03:13:00,VALID,916.99,VALID,0,VALID,96.6419,VALID,-0.0169808,VALID,19.1832,VALID,279,VALID,0,
2001-05-10, 03:14:00,VALID,916.988,VALID,0,VALID,96.5542,VALID,-0.0169808,VALID,19.1737,VALID,300,VALID,0,
2001-05-10, 03:15:00,VALID,916.989,VALID,0,VALID,96.5987,VALID,-0.0169808,VALID,19.1643,VALID,314,VALID,0,
2001-05-10, 03:16:00,VALID,916.981,VALID,0,VALID,96.8352,VALID,0,VALID,19.1543,VALID,322,VALID,0,
2001-05-10, 03:17:00,VALID,916.973,VALID,0,VALID,97.0323,VALID,-0.0169808,VALID,19.1543,VALID,314,VALID,0,
2001-05-10, 03:18:00,VALID,916.986,VALID,0,VALID,97.19,VALID,-0.0509425,VALID,19.1382,VALID,311,VALID,0,
2001-05-10, 03:19:00,VALID,916.997,VALID,0,VALID,97.293,VALID,-0.0169808,VALID,19.1317,VALID,310,VALID,0,
2001-05-10, 03:20:00,VALID,916.991,VALID,0,VALID,97.368,VALID,0,VALID,19.1317,VALID,305,VALID,0,
2001-05-10, 03:21:00,VALID,917,VALID,0,VALID,97.4354,VALID,0.0169808,VALID,19.1285,VALID,254,VALID,0,
2001-05-10, 03:22:00,VALID,917.001,VALID,0,VALID,97.5168,VALID,-0.0169808,VALID,19.1121,VALID,213,VALID,0,
2001-05-10, 03:23:00,VALID,917.013,VALID,0,VALID,97.5982,VALID,-0.0169808,VALID,19.1123,VALID,222,VALID,0,
2001-05-10, 03:24:00,VALID,916.998,VALID,0,VALID,97.7368,VALID,0,VALID,19.0957,VALID,214,VALID,0,
2001-05-10, 03:25:00,VALID,916.993,VALID,0,VALID,97.8474,VALID,-0.0339617,VALID,19.093,VALID,199,VALID,0,
2001-05-10, 03:26:00,VALID,916.996,VALID,0,VALID,97.8322,VALID,-0.0339617,VALID,19.0669,VALID,175,VALID,0,
2001-05-10, 03:27:00,VALID,916.983,VALID,0,VALID,97.9199,VALID,-0.0169808,VALID,19.0572,VALID,167,VALID,0,
2001-05-10, 03:28:00,VALID,916.979,VALID,0,VALID,97.9809,VALID,-0.0169808,VALID,19.0607,VALID,167,VALID,0,
2001-05-10, 03:29:00,VALID,916.978,VALID,0,VALID,97.9848,VALID,-0.0509425,VALID,19.0413,VALID,175,VALID,0,
2001-05-10, 03:30:00,VALID,916.956,VALID,0,VALID,98.1056,VALID,0,VALID,19.0418,VALID,181,VALID,0,
2001-05-10, 03:31:00,VALID,916.944,VALID,0,VALID,98.1679,VALID,0,VALID,19.0477,VALID,187,VALID,0,
2001-05-10, 03:32:00,VALID,916.939,VALID,0,VALID,98.1742,VALID,0,VALID,19.0736,VALID,190,VALID,0,
2001-05-10, 03:33:00,VALID,916.91,VALID,0,VALID,98.1068,VALID,0,VALID,19.0964,VALID,198,VALID,0,
2001-05-10, 03:34:00,VALID,916.9,VALID,0,VALID,97.9937,VALID,-0.0169808,VALID,19.0863,VALID,209,VALID,0,
2001-05-10, 03:35:00,VALID,916.888,VALID,0,VALID,97.8449,VALID,-0.0169808,VALID,19.1123,VALID,203,VALID,0,
2001-05-10, 03:36:00,VALID,916.883,VALID,0,VALID,97.6643,VALID,-0.0169808,VALID,19.1148,VALID,201,VALID,0,
2001-05-10, 03:37:00,VALID,916.896,VALID,0,VALID,97.4863,VALID,-0.0339617,VALID,19.1543,VALID,178,VALID,0,
2001-05-10, 03:38:00,VALID,916.897,VALID,0,VALID,97.265,VALID,-0.0339617,VALID,19.1769,VALID,182,VALID,0,
2001-05-10, 03:39:00,VALID,916.919,VALID,0,VALID,97.0069,VALID,0,VALID,19.1799,VALID,183,VALID,0,
2001-05-10, 03:40:00,VALID,916.94,VALID,0,VALID,96.9103,VALID,0,VALID,19.2192,VALID,183,VALID,0,
2001-05-10, 03:41:00,VALID,916.947,VALID,0,VALID,96.6763,VALID,-0.0339617,VALID,19.2289,VALID,186,VALID,0,
2001-05-10, 03:42:00,VALID,916.957,VALID,0,VALID,96.4677,VALID,-0.0169808,VALID,19.2478,VALID,191,VALID,0,
2001-05-10, 03:43:00,VALID,916.959,VALID,0,VALID,96.3864,VALID,-0.0169808,VALID,19.2835,VALID,197,VALID,0,
2001-05-10, 03:44:00,VALID,916.969,VALID,0,VALID,96.2999,VALID,-0.0169808,VALID,19.3059,VALID,195,VALID,0,
2001-05-10, 03:45:00,VALID,916.962,VALID,0,VALID,96.2287,VALID,-0.0339617,VALID,19.3153,VALID,192,VALID,0,
2001-05-10, 03:46:00,VALID,916.958,VALID,0,VALID,96.1549,VALID,-0.0509425,VALID,19.3419,VALID,191,VALID,0,
2001-05-10, 03:47:00,VALID,916.949,VALID,0,VALID,96.0939,VALID,-0.0169808,VALID,19.3511,VALID,189,VALID,0,